Location: Hylvaty SDH
(49.9612°N, 16.4057°E)
Time: 04:04:31
(UTC+01:00)

Tiros 1 despin weight - Pass Details

Date: 17 January 2021
Orbit: 593 x 642 km, 48.2° (Epoch: 24 February)

Event Time Altitude Azimuth Distance (km) Brightness Sun altitude
Rises 17:43:47 0° 237° (WSW) 2,852 ? -12.4°
Reaches altitude 10° 17:46:09 10° 231° (SW) 1,943 ? -12.8°
Maximum altitude 17:50:24 45° 159° (SSE) 821 ? -13.4°
Enters shadow 17:53:05 20° 96° (E) 1,383 ? -13.8°
